Location: Stoke Bliss
(52.2667°N, 2.5167°W)
Time: 21:35:31
(UTC+00:00)

Cosmos 1602 - Pass Details

Date: 03 March 2021
Orbit: 512 x 534 km, 82.5° (Epoch: 15 April)

Event Time Altitude Azimuth Distance (km) Brightness Sun altitude
Rises 18:40:42 0° 180° (S) 2,654 7.3 -8.0°
Reaches altitude 10° 18:42:50 10° 177° (S) 1,773 6.4 -8.4°
Maximum altitude 18:46:41 62° 97° (E) 605 3.7 -8.9°
Drops below altitude 10° 18:50:35 10° 17° (NNE) 1,799 6.3 -9.5°
Sets 18:52:46 0° 14° (NNE) 2,697 7.2 -9.9°
